| time (UTC) | temp F | wind direction | speed knots | gust knots | rain 1hr in | rain 24hr in | rain mn in | humidity % | barometer mb |
| 20260505194518 | 80 | 343 | 2.6 | 7.8 | 0.00 | 0.00 | 0.00 | 34 | 1010.1 |
| 20260505193016 | 78 | 41 | 4.3 | 8.7 | 0.00 | 0.00 | 0.00 | 35 | 1010.1 |
| 20260505191523 | 78 | 51 | 0.0 | 10.4 | 0.00 | 0.00 | 0.00 | 36 | 1010.1 |
| 20260505190012 | 77 | 66 | 0.0 | 7.8 | 0.00 | 0.00 | 0.00 | 37 | 1010.2 |
| 20260505184511 | 78 | 39 | 1.7 | 5.2 | 0.00 | 0.00 | 0.00 | 39 | 1010.2 |
| 20260505183006 | 75 | 12 | 0.9 | 7.0 | 0.00 | 0.00 | 0.00 | 43 | 1010.3 |
| 20260505181505 | 75 | 45 | 0.9 | 5.2 | 0.00 | 0.00 | 0.00 | 42 | 1010.3 |
| 20260505180001 | 73 | 75 | 1.7 | 6.1 | 0.00 | 0.00 | 0.00 | 44 | 1010.4 |
| 20260505174606 | 72 | 28 | 0.9 | 8.7 | 0.00 | 0.00 | 0.00 | 46 | 1010.4 |
| 20260505173058 | 72 | 86 | 2.6 | 7.8 | 0.00 | 0.00 | 0.00 | 45 | 1010.3 |
| 20260505171557 | 72 | 49 | 4.3 | 7.0 | 0.00 | 0.00 | 0.00 | 45 | 1010.4 |
| 20260505170054 | 70 | 131 | 3.5 | 7.8 | 0.00 | 0.00 | 0.00 | 47 | 1010.3 |
| 20260505164551 | 70 | 35 | 5.2 | 9.6 | 0.00 | 0.00 | 0.00 | 46 | 1010.2 |
| 20260505163048 | 68 | 82 | 6.1 | 11.3 | 0.00 | 0.00 | 0.00 | 46 | 1010.2 |
| 20260505161547 | 67 | 54 | 9.6 | 12.2 | 0.00 | 0.00 | 0.00 | 47 | 1010.1 |
| 20260505153037 | 65 | 56 | 8.7 | 13.9 | 0.00 | 0.00 | 0.00 | 49 | 1010.0 |
| 20260505151533 | 64 | 56 | 9.6 | 13.0 | 0.00 | 0.00 | 0.00 | 50 | 1009.7 |
| 20260505124515 | 53 | 60 | 0.0 | 1.7 | 0.00 | 0.00 | 0.00 | 67 | 1008.4 |
| 20260505123010 | 53 | 42 | 0.9 | 2.6 | 0.00 | 0.00 | 0.00 | 70 | 1008.3 |
| 20260505121521 | 54 | 332 | 0.0 | 6.1 | 0.00 | 0.00 | 0.00 | 66 | 1008.2 |
| 20260505120005 | 56 | 36 | 1.7 | 4.3 | 0.00 | 0.00 | 0.00 | 63 | 1008.1 |
| 20260505114503 | 55 | 25 | 0.0 | 1.7 | 0.00 | 0.00 | 0.00 | 66 | 1007.9 |
| 20260505113117 | 55 | 63 | 1.7 | 4.3 | 0.00 | 0.00 | 0.00 | 65 | 1007.8 |
| 20260505111557 | 55 | 96 | 2.6 | 5.2 | 0.00 | 0.00 | 0.00 | 64 | 1007.6 |
| 20260505110105 | 56 | 36 | 0.9 | 3.5 | 0.00 | 0.00 | 0.00 | 62 | 1007.3 |
| 20260505101551 | 57 | 79 | 0.9 | 2.6 | 0.00 | 0.00 | 0.00 | 60 | 1006.9 |
| 20260505100048 | 57 | 59 | 0.9 | 3.5 | 0.00 | 0.00 | 0.00 | 60 | 1006.8 |
| 20260505094547 | 57 | 42 | 0.0 | 2.6 | 0.00 | 0.00 | 0.00 | 60 | 1006.8 |
| 20260505093053 | 57 | 44 | 1.7 | 5.2 | 0.00 | 0.00 | 0.00 | 61 | 1006.7 |
| 20260505091544 | 56 | 63 | 1.7 | 5.2 | 0.00 | 0.00 | 0.00 | 61 | 1006.6 |
| 20260505090046 | 57 | 86 | 0.0 | 3.5 | 0.00 | 0.00 | 0.00 | 60 | 1006.5 |
| 20260505084550 | 58 | 48 | 0.0 | 3.5 | 0.00 | 0.00 | 0.00 | 59 | 1006.4 |
| 20260505083043 | 58 | 53 | 0.0 | 3.5 | 0.00 | 0.00 | 0.00 | 58 | 1006.3 |
| 20260505081533 | 59 | 41 | 1.7 | 4.3 | 0.00 | 0.00 | 0.00 | 58 | 1006.1 |
| 20260505080041 | 60 | 25 | 0.9 | 4.3 | 0.00 | 0.00 | 0.00 | 57 | 1006.2 |
| 20260505074529 | 60 | 42 | 2.6 | 4.3 | 0.00 | 0.00 | 0.00 | 57 | 1006.2 |
| 20260505073034 | 61 | 32 | 0.9 | 3.5 | 0.00 | 0.00 | 0.00 | 57 | 1006.2 |
| 20260505071537 | 60 | 40 | 0.0 | 3.5 | 0.00 | 0.00 | 0.00 | 60 | 1006.0 |
| 20260505070024 | 60 | 51 | 2.6 | 6.1 | 0.00 | 0.00 | 0.00 | 61 | 1005.9 |
| 20260505064522 | 61 | 54 | 1.7 | 3.5 | 0.00 | 0.00 | 0.00 | 60 | 1005.8 |
| 20260505063022 | 62 | 41 | 2.6 | 5.2 | 0.00 | 0.00 | 0.00 | 58 | 1005.7 |
| 20260505061520 | 62 | 56 | 0.0 | 2.6 | 0.00 | 0.00 | 0.00 | 58 | 1005.7 |
| 20260505060030 | 62 | 42 | 0.9 | 4.3 | 0.00 | 0.00 | 0.00 | 60 | 1005.7 |
| 20260505054520 | 64 | 34 | 0.0 | 1.7 | 0.00 | 0.00 | 0.00 | 58 | 1005.4 |
| 20260505053026 | 63 | 42 | 0.0 | 2.6 | 0.00 | 0.00 | 0.00 | 60 | 1005.4 |
| 20260505051518 | 64 | 47 | 1.7 | 3.5 | 0.00 | 0.00 | 0.00 | 58 | 1005.2 |
| 20260505041516 | 69 | 34 | 0.0 | 0.9 | 0.00 | 0.00 | 0.00 | 52 | 1004.8 |
| 20260505040016 | 72 | 86 | 0.0 | 2.6 | 0.00 | 0.00 | 0.00 | 45 | 1004.7 |
| 20260505034515 | 73 | 91 | 2.6 | 4.3 | 0.00 | 0.00 | 0.00 | 44 | 1004.5 |
| 20260505033019 | 72 | 356 | 0.0 | 1.7 | 0.00 | 0.00 | 0.00 | 47 | 1004.3 |
| 20260505031514 | 75 | 82 | 0.9 | 3.5 | 0.00 | 0.00 | 0.00 | 40 | 1004.1 |
| 20260505030013 | 75 | 52 | 0.0 | 3.5 | 0.00 | 0.00 | 0.00 | 42 | 1004.0 |
| 20260505024513 | 74 | 40 | 0.9 | 3.5 | 0.00 | 0.00 | 0.00 | 42 | 1003.9 |
| 20260505023011 | 75 | 331 | 2.6 | 4.3 | 0.00 | 0.00 | 0.00 | 44 | 1003.7 |
| 20260505021513 | 78 | 317 | 2.6 | 3.5 | 0.00 | 0.00 | 0.00 | 38 | 1003.8 |
| 20260505020016 | 80 | 312 | 2.6 | 5.2 | 0.00 | 0.00 | 0.00 | 34 | 1003.8 |
| 20260505014508 | 82 | 331 | 5.2 | 8.7 | 0.00 | 0.00 | 0.00 | 30 | 1003.8 |
| 20260505013006 | 83 | 336 | 6.1 | 11.3 | 0.00 | 0.00 | 0.00 | 26 | 1003.9 |
| 20260505011504 | 84 | 359 | 4.3 | 8.7 | 0.00 | 0.00 | 0.00 | 27 | 1004.0 |
| 20260505010006 | 84 | 20 | 5.2 | 8.7 | 0.00 | 0.00 | 0.00 | 26 | 1004.1 |
| 20260505004510 | 85 | 323 | 5.2 | 9.6 | 0.00 | 0.00 | 0.00 | 25 | 1004.2 |
| 20260505003002 | 86 | 354 | 3.5 | 6.1 | 0.00 | 0.00 | 0.00 | 25 | 1004.1 |
| 20260505001502 | 86 | 347 | 3.5 | 9.6 | 0.00 | 0.00 | 0.00 | 24 | 1004.4 |
| 20260505000100 | 85 | 351 | 7.0 | 10.4 | 0.00 | 0.00 | 0.00 | 24 | 1004.4 |
| 20260504234558 | 85 | 315 | 4.3 | 7.0 | 0.00 | 0.00 | 0.00 | 21 | 1004.4 |
| 20260504233058 | 86 | 319 | 3.5 | 7.0 | 0.00 | 0.00 | 0.00 | 22 | 1004.3 |
| 20260504231558 | 85 | 312 | 4.3 | 8.7 | 0.00 | 0.00 | 0.00 | 21 | 1004.4 |
| 20260504230056 | 85 | 314 | 6.1 | 10.4 | 0.00 | 0.00 | 0.00 | 22 | 1004.6 |
| 20260504224555 | 86 | 315 | 7.0 | 12.2 | 0.00 | 0.00 | 0.00 | 22 | 1004.7 |
| 20260504223053 | 88 | 300 | 0.0 | 6.1 | 0.00 | 0.00 | 0.00 | 26 | 1004.7 |
| 20260504221552 | 87 | 316 | 0.9 | 5.2 | 0.00 | 0.00 | 0.00 | 22 | 1004.9 |
| 20260504220050 | 86 | 322 | 0.9 | 7.0 | 0.00 | 0.00 | 0.00 | 24 | 1005.1 |
| 20260504214555 | 87 | 309 | 0.0 | 6.1 | 0.00 | 0.00 | 0.00 | 25 | 1005.3 |
| 20260504213046 | 88 | 323 | 0.9 | 5.2 | 0.00 | 0.00 | 0.00 | 26 | 1005.5 |
| 20260504211543 | 85 | 17 | 4.3 | 7.8 | 0.00 | 0.00 | 0.00 | 27 | 1005.6 |
| 20260504210141 | 85 | 338 | 3.5 | 7.0 | 0.00 | 0.00 | 0.00 | 26 | 1005.8 |
| 20260504204556 | 85 | 51 | 0.0 | 4.3 | 0.00 | 0.00 | 0.00 | 26 | 1006.0 |
| 20260504203041 | 85 | 305 | 0.9 | 5.2 | 0.00 | 0.00 | 0.00 | 27 | 1006.1 |
| 20260504201636 | 85 | 305 | 0.0 | 4.3 | 0.00 | 0.00 | 0.00 | 29 | 1006.2 |
| 20260504200034 | 84 | 224 | 1.7 | 5.2 | 0.00 | 0.00 | 0.00 | 31 | 1006.4 |